, AK

(GMT )
Valdez Airport

Weather History for PAVD - January, 2014

Change the Weather History Date:

Saturday, January 4, 2014

  Actual Average Record
Temperature  
Mean Temperature 28 °F -  
Max Temperature 32 °F 26 °F 44 °F (2017)
Min Temperature 23 °F 16 °F -10 °F (1966)
Degree Days  
Heating Degree Days 38    
Moisture  
Dew Point 26 °F    
Average Humidity 92    
Maximum Humidity 100    
Minimum Humidity 80    
Precipitation  
Precipitation 0.46 in - - ()
Sea Level Pressure  
Sea Level Pressure 30.06 in    
Wind  
Wind Speed 1 mph (ESE)    
Max Wind Speed 4 mph    
Max Gust Speed -    
Visibility 5 miles    
Events Snow    
Averages and records for this station are not official NWS values.
T = Trace of Precipitation, MM = Missing Value Source: NWS Daily Summary

Daily Weather History Graph

Daily Weather History Graph

Search for Another Location

Airport or City:

Astronomy

Jan. 04, 2014 Rise Set
Actual Time 9:55 AM AKST 3:44 PM AKST
Civil Twilight 8:56 AM AKST 4:44 PM AKST
Nautical Twilight 7:57 AM AKST 5:42 PM AKST
Astronomical Twilight 7:04 AM AKST 6:35 PM AKST
Moon 10:46 AM AKST (1/4) 9:44 PM AKST (1/4)
Length of Visible Light 7h 48m
Length of Day
5h 48m
Waxing Crescent, 16% of the Moon is Illuminated
Jan 4
Waxing Crescent
Jan 7
First Quarter
Jan 15
Full
Jan 23
Last Quarter
Jan 30
New

Hourly Weather History & Observations

Time (AKST) Temp. Windchill Dew Point Humidity Pressure Visibility Wind Dir Wind Speed Gust Speed Precip Events Conditions
12:16 AM 26.6 °F - 24.8 °F 93% 30.34 in 10.0 mi Calm Calm - N/A   Overcast
12:36 AM 24.8 °F 20.5 °F 23.0 °F 93% 30.33 in 10.0 mi ENE 3.5 mph - N/A   Mostly Cloudy
12:56 AM 24.8 °F - 21.2 °F 86% 30.33 in 10.0 mi Calm Calm - N/A   Partly Cloudy
1:16 AM 24.8 °F - 21.2 °F 86% 30.32 in 10.0 mi Calm Calm - N/A   Clear
1:36 AM 23.0 °F 18.4 °F 17.6 °F 80% 30.32 in 10.0 mi East 3.5 mph - N/A   Clear
1:56 AM 24.8 °F 20.5 °F 21.2 °F 86% 30.32 in 10.0 mi ESE 3.5 mph - N/A   Clear
2:16 AM 23.0 °F - 21.2 °F 93% 30.32 in 10.0 mi Calm Calm - N/A   Mostly Cloudy
2:36 AM 23.0 °F - 21.2 °F 93% 30.32 in 10.0 mi Calm Calm - N/A   Overcast
2:56 AM 24.8 °F - 21.2 °F 86% 30.31 in 10.0 mi Calm Calm - N/A   Overcast
3:16 AM 24.8 °F - 19.4 °F 80% 30.30 in 10.0 mi Calm Calm - N/A   Overcast
3:36 AM 24.8 °F - 24.8 °F 100% 30.31 in 10.0 mi Calm Calm - N/A   Overcast
3:56 AM 26.6 °F - 26.6 °F 100% 30.30 in 10.0 mi Calm Calm - N/A   Overcast
4:16 AM 24.8 °F - 23.0 °F 93% 30.29 in 10.0 mi Calm Calm - N/A   Overcast
4:36 AM 24.8 °F - 21.2 °F 86% 30.28 in 10.0 mi Calm Calm - N/A   Overcast
4:56 AM 24.8 °F - 21.2 °F 86% 30.28 in 10.0 mi Calm Calm - N/A   Overcast
5:16 AM 24.8 °F - 23.0 °F 93% 30.27 in 10.0 mi Calm Calm - N/A   Overcast
5:36 AM 24.8 °F - 23.0 °F 93% 30.26 in 10.0 mi Calm Calm - N/A   Overcast
5:56 AM 26.6 °F 22.6 °F 23.0 °F 86% 30.25 in 10.0 mi SSE 3.5 mph - N/A   Overcast
6:16 AM 26.6 °F - 23.0 °F 86% 30.25 in 10.0 mi Calm Calm - N/A   Overcast
6:36 AM 26.6 °F - 21.2 °F 80% 30.24 in 10.0 mi Calm Calm - N/A   Overcast
6:56 AM 26.6 °F - 24.8 °F 93% 30.24 in 10.0 mi Calm Calm - N/A   Overcast
7:16 AM 26.6 °F 22.6 °F 24.8 °F 93% 30.23 in 10.0 mi ENE 3.5 mph - N/A   Overcast
7:36 AM 26.6 °F - 24.8 °F 93% 30.22 in 10.0 mi Calm Calm - N/A   Overcast
7:56 AM 26.6 °F - 23.0 °F 86% 30.21 in 8.0 mi Calm Calm - N/A   Overcast
8:16 AM 26.6 °F - 23.0 °F 86% 30.20 in 8.0 mi Calm Calm - N/A   Overcast
8:36 AM 26.6 °F - 21.2 °F 80% 30.19 in 8.0 mi Calm Calm - N/A   Overcast
8:56 AM 26.6 °F - 26.6 °F 100% 30.18 in 7.0 mi Calm Calm - N/A   Overcast
9:16 AM 26.6 °F - 24.8 °F 93% 30.18 in 7.0 mi Calm Calm - N/A   Overcast
9:36 AM 26.6 °F - 24.8 °F 93% 30.17 in 7.0 mi Calm Calm - N/A   Overcast
9:56 AM 26.6 °F - 26.6 °F 100% 30.16 in 1.2 mi Calm Calm - N/A   Overcast
10:16 AM 28.4 °F - 26.6 °F 93% 30.16 in 1.2 mi Calm Calm - N/A   Overcast
10:36 AM 28.4 °F - 26.6 °F 93% 30.16 in 1.2 mi Calm Calm - 0.01 in   Overcast
10:56 AM 28.4 °F - 26.6 °F 93% 30.15 in 1.5 mi Calm Calm - 0.01 in   Overcast
11:16 AM 26.6 °F - 26.6 °F 100% 30.14 in 1.5 mi Calm Calm - N/A   Overcast
11:36 AM 28.4 °F - 26.6 °F 93% 30.13 in 1.5 mi Calm Calm - 0.01 in   Overcast
11:56 AM 28.4 °F - 28.4 °F 100% 30.12 in 1.2 mi Calm Calm - 0.01 in   Overcast
12:16 PM 28.4 °F - 26.6 °F 93% 30.10 in 1.2 mi Calm Calm - N/A   Overcast
12:36 PM 28.4 °F 24.6 °F 26.6 °F 93% 30.09 in 1.2 mi SSE 3.5 mph - N/A   Overcast
12:56 PM 28.4 °F - 26.6 °F 93% 30.07 in 4.0 mi Calm Calm - N/A   Overcast
1:16 PM 28.4 °F - 26.6 °F 93% 30.05 in 4.0 mi Calm Calm - N/A   Overcast
1:36 PM 28.4 °F - 24.8 °F 86% 30.04 in 4.0 mi Calm Calm - N/A   Overcast
1:56 PM 30.2 °F - 28.4 °F 93% 30.02 in 1.5 mi Calm Calm - N/A   Overcast
2:16 PM 28.4 °F - 26.6 °F 93% 30.00 in 1.5 mi Calm Calm - N/A   Overcast
2:36 PM 30.2 °F - 26.6 °F 86% 29.98 in 1.5 mi Calm Calm - N/A   Overcast
2:56 PM 28.4 °F - 28.4 °F 100% 29.96 in 7.0 mi Calm Calm - N/A   Overcast
3:16 PM 28.4 °F - 24.8 °F 86% 29.95 in 7.0 mi Calm Calm - N/A   Overcast
3:36 PM 28.4 °F 24.6 °F 26.6 °F 93% 29.94 in 7.0 mi WSW 3.5 mph - N/A   Overcast
3:56 PM 28.4 °F - 24.8 °F 86% 29.92 in 4.0 mi Calm Calm - N/A   Overcast
4:16 PM 28.4 °F - 28.4 °F 100% 29.91 in 4.0 mi Calm Calm - N/A   Overcast
4:24 PM 28.4 °F - 26.6 °F 93% 29.90 in 1.5 mi Calm Calm - N/A Snow Light Snow
4:36 PM 28.4 °F - 28.4 °F 100% 29.90 in 1.5 mi Calm Calm - N/A   Overcast
4:56 PM 30.2 °F - 28.4 °F 93% 29.89 in 1.5 mi Calm Calm - N/A   Overcast
5:16 PM 28.4 °F - 28.4 °F 100% 29.88 in 1.5 mi Calm Calm - N/A   Overcast
5:36 PM 28.4 °F - 26.6 °F 93% 29.86 in 1.5 mi Calm Calm - 0.01 in   Overcast
5:56 PM 30.2 °F - 28.4 °F 93% 29.84 in 1.5 mi Calm Calm - 0.01 in   Overcast
6:16 PM 28.4 °F - 28.4 °F 100% 29.83 in 1.5 mi Calm Calm - 0.01 in   Overcast
6:36 PM 28.4 °F - 28.4 °F 100% 29.82 in 1.5 mi Calm Calm - 0.01 in   Overcast
6:56 PM 28.4 °F - 28.4 °F 100% 29.81 in 0.5 mi Calm Calm - 0.03 in   Overcast
7:16 PM 30.2 °F - 26.6 °F 86% 29.80 in 0.5 mi Calm Calm - 0.02 in   Overcast
7:36 PM 30.2 °F - 26.6 °F 86% 29.80 in 0.5 mi Calm Calm - 0.05 in   Overcast
7:56 PM 30.2 °F - 24.8 °F 80% 29.79 in 0.2 mi Calm Calm - 0.08 in   Unknown
8:16 PM 30.2 °F - 26.6 °F 86% 29.79 in 0.2 mi Calm Calm - 0.04 in   Unknown
8:36 PM 30.2 °F - 26.6 °F 86% 29.79 in 0.2 mi Calm Calm - 0.09 in   Unknown
8:56 PM 30.2 °F - 28.4 °F 93% 29.78 in 0.2 mi Calm Calm - 0.12 in   Unknown
9:16 PM 30.2 °F - 30.2 °F 100% 29.77 in 0.2 mi Calm Calm - 0.03 in   Unknown
9:36 PM 30.2 °F - 28.4 °F 93% 29.78 in 0.2 mi Calm Calm - 0.06 in   Unknown
9:56 PM 30.2 °F - 28.4 °F 93% 29.77 in 0.5 mi Calm Calm - 0.09 in   Overcast
10:16 PM 30.2 °F - 28.4 °F 93% 29.76 in 1.0 mi Calm Calm - 0.02 in   Unknown
10:36 PM 30.2 °F - 28.4 °F 93% 29.76 in 2.0 mi Calm Calm - 0.03 in   Unknown
10:56 PM 30.2 °F - 28.4 °F 93% 29.75 in 2.5 mi Calm Calm - 0.04 in   Unknown
11:16 PM 30.2 °F - 30.2 °F 100% 29.75 in 2.5 mi Calm Calm - N/A   Unknown
11:36 PM 32.0 °F - 30.2 °F 93% 29.74 in 3.0 mi Calm Calm - N/A   Unknown
11:56 PM 32.0 °F - 30.2 °F 93% 29.74 in 4.0 mi Calm Calm - 0.07 in   Unknown